Location: Unspecified
(41.5000°N, 0.0000°E)
Time: 13:05:55
(UTC+00:00)

A-11 Canister half - Pass Details

Date: 01 July 2019
Orbit: 1526 x 1683 km, 47.3° (Epoch: 22 July)

Event Time Altitude Azimuth Distance (km) Brightness Sun altitude
Exits shadow 01:39:29 32° 211° (SSW) 2,461 9.5 -21.7°
Maximum altitude 01:44:17 63° 143° (SE) 1,728 9.1 -21.3°
Drops below altitude 10° 01:53:31 10° 66° (ENE) 3,723 11.7 -20.5°
Sets 01:56:34 0° 63° (ENE) 4,696 12.4 -20.3°
